Weather in Soldato-Aleksandrovskoe

Russia / Stavropol Krai     44°15′46″N   43°45′17″E
temp.,
°C
wind,
m/s
gust,
m/s
humid.,
%
clouds,
%
prec.,
mm/h
press.,
hPa
HPBL,
m
2 july, sat
sat200:00+21wnw475188 0.0 1010147
03:00+18w366816 0.0 100991
06:00+20wnw6136238 0.0 1010487
09:00+22nnw68440 0.0 1011988
12:00+25nnw584071 0.0 10122155
15:00+26nw910315 0.0 10112684
18:00+23nw710320 0.0 10121896
21:00+16w512520 0.0 1014264
3 july, sun
sun300:00+16w613540 0.0 1015337
03:00+16w715500 0.0 1013413
06:00+16wnw613530 0.0 1014693
09:00+22wnw810450 0.0 10141411
12:00+25wnw89360 0.0 10132164
15:00+27nw89315 0.0 10132766
18:00+25wnw68344 0.0 10131962
21:00+19w513539 0.0 1015265
4 july, mon
mon400:00+19nw395061 0.0 1015258
03:00+15wnw47615 0.0 101595
06:00+17w36595 0.0 1016167
09:00+24wnw33390 0.0 1016890
12:00+28wnw34284 0.0 10152740
15:00+29wnw45266 0.0 10132911
18:00+28w563213 0.0 10131740
21:00+23w3648100 0.0 1015119
5 july, tue
tue500:00+18wnw33620 0.0 101544
03:00+17w34650 0.0 101549
06:00+19w36600 0.0 1016144
09:00+25nnw44460 0.0 10161009
12:00+28n33364 0.0 10152417
15:00+30nne53272 0.0 10142863
18:00+29nne44270 0.0 10141691
21:00+21ene33380 0.0 101625
6 july, wed
wed600:00+19ene224514 0.0 101614
03:00+17ene12490 0.0 101612
06:00+19e25480 0.0 1017151
09:00+27e67310 0.0 10161313
12:00+30e66260 0.0 10152318
15:00+31e77210 0.0 10142482
18:00+29ese67220 0.0 10142000
21:00+23ese715440 0.0 1016490